Temp
90 90 90 91 91 92 91 91 92 91 90 93 92 91 92 92 93 92 93 92 92 91 91 90 90 90 91 90 90 90 90 90 92 91 91 91 91 92 94 93 93 92
90 91 90 91 90 91 91 93 92 92 90 91 92 92 92 92 93 93 92 92 92 92 91 91 90 90 90 91 90 89 89 89 90 94 90 90 91 93 93 93 93 93
91 91 92 92 93 92 95 93 92 92 93 94 93 92 94 94 93 92 92 92 92 93 91 91 91 90 90 90 90 90 90 88 89 92 90 90 92 91 92 95 95 94
90 91 93 93 94 94 94 93 93 92 93 93 93 94 94 97 93 93 92 91 91 92 92 92 92 92 91 90 89 90 90 89 91 91 90 90 90 92 93 93 95 95
91 92 93 94 94 94 94 93 94 94 94 94 95 94 93 92 92 93 92 91 91 92 92 92 92 92 91 90 90 89 90 90 89 90 89 89 90 91 93 93 92 93
91 91 91 93 94 93 94 94 94 95 94 96 95 96 94 93 93 94 93 93 94 94 94 94 93 93 93 91 90 90 90 91 92 90 89 88 89 90 95 93 92 91
93 92 93 94 95 95 94 94 94 94 96 96 95 95 95 95 93 92 93 93 94 93 95 93 91 91 92 91 90 89 89 88 86 90 88 90 89 88 93 92 90 90
94 94 94 94 95 95 94 95 95 94 95 95 96 95 96 96 94 95 94 94 94 93 93 94 92 91 94 93 91 90 90 94 92 89 88 89 89 89 90 92 91 89
95 94 94 94 96 96 97 97 97 96 95 95 97 97 96 96 96 96 93 93 93 92 92 92 91 92 92 93 92 91 90 92 94 91 90 89 89 89 91 91 91 90
93 95 96 96 97 97 97 98 99 97 96 96 97 99 98 95 96 96 95 92 92 92 92 91 92 92 92 92 92 92 91 90 91 91 92 91 91 91 92 92 91 90
95 97 96 96 97 99 99 99 100 100 98 97 97 98 99 97 94 95 94 93 94 92 92 91 92 92 91 93 93 93 92 92 91 91 91 91 92 91 92 92 91 92
95 96 97 97 97 99 100 100 100 100 100 98 98 97 97 100 96 96 95 93 93 93 93 92 91 92 91 92 94 94 93 94 93 92 93 93 93 94 93 93 93 92
96 96 96 98 97 98 100 100 100 101 101 100 99 98 98 99 100 96 95 95 93 94 94 92 92 93 91 91 92 93 94 93 95 94 93 94 94 95 96 96 95 95
95 97 97 96 97 95 97 100 101 100 99 99 99 97 98 99 100 99 97 96 95 94 94 93 92 92 91 91 91 93 94 94 94 94 95 94 95 95 96 97 97 97
94 96 96 96 96 95 95 97 98 98 98 98 97 98 100 99 100 101 99 96 95 94 94 95 95 93 93 92 91 91 93 94 94 94 94 93 94 96 96 96 97 99
93 93 94 94 94 94 93 95 97 98 100 98 97 98 97 96 96 97 100 99 96 95 95 96 95 96 89 83 85 92 92 95 94 92 92 93 92 93 96 97 98 99
91 92 91 92 92 93 93 93 93 96 96 95 95 96 94 94 96 97 98 100 99 97 95 97 97 98 82 74 75 79 91 93 93 92 92 92 93 91 91 94 97 97
87 87 89 90 91 91 91 91 93 93 92 93 95 96 93 96 96 95 95 97 99 99 98 97 97 88 73 72 73 73 80 92 95 94 95 94 93 93 93 94 95 97
86 87 87 88 89 90 90 90 90 91 92 93 95 95 96 92 92 94 94 95 96 95 98 99 98 83 70 71 71 71 72 83 96 95 96 96 95 93 93 92 92 93
81 84 85 86 86 87 89 89 89 89 92 94 94 93 92 92 94 92 93 92 93 93 93 97 98 84 68 68 69 69 70 75 93 95 95 96 94 95 96 93 92 92
83 84 85 86 86 85 86 87 88 89 90 92 95 94 92 90 92 91 91 92 94 95 94 97 100 78 67 67 66 66 68 72 90 94 94 94 94 95 92 93 93 93
82 82 83 84 85 85 83 83 87 87 87 90 92 95 94 94 93 93 93 93 93 94 95 94 98 77 66 65 64 65 66 81 88 88 90 92 93 93 92 91 92 92
79 79 80 82 83 84 84 85 86 87 89 90 90 92 94 95 93 94 92 93 94 93 93 93 96 82 66 63 62 63 68 84 87 88 88 89 89 91 91 92 93 92
79 80 81 82 82 82 83 84 85 87 89 90 91 91 91 94 95 94 94 93 94 94 95 93 95 85 65 62 61 61 71 85 86 87 88 87 88 89 90 90 91 86
81 82 82 83 83 83 80 75 76 77 79 82 83 90 91 91 91 93 95 95 97 96 89 93 95 88 65 62 60 59 70 86 87 87 86 87 88 88 88 90 90 87
80 80 81 83 84 84 79 73 76 75 75 75 77 77 78 82 90 91 93 95 97 97 97 96 95 95 81 60 60 58 62 84 88 87 86 86 88 87 88 89 89 90
MSLP
1016.62 1016.82 1017.22 1017.42 1017.54 1017.58 1017.78 1018.06 1018.06 1018.38 1018.50 1018.42 1018.78 1018.78 1018.78 1018.78 1018.58 1018.82 1018.94 1019.10 1019.30 1019.46 1019.66 1019.78 1019.86 1020.06 1020.10 1020.18 1020.26 1020.38 1020.50 1020.54 1020.38 1020.46 1020.58 1020.66 1020.78 1020.74 1020.78 1020.82 1020.70 1020.82
1016.42 1016.58 1016.78 1016.98 1017.30 1017.38 1017.46 1017.50 1017.78 1017.98 1018.30 1018.30 1018.30 1018.42 1018.38 1018.46 1018.58 1018.70 1018.94 1019.10 1019.22 1019.38 1019.50 1019.62 1019.78 1019.94 1020.06 1020.10 1020.30 1020.50 1020.58 1020.58 1020.66 1020.10 1020.62 1020.74 1020.66 1020.54 1020.66 1020.54 1020.66 1020.46
1016.14 1016.38 1016.66 1016.94 1017.06 1017.26 1017.22 1017.26 1017.46 1017.70 1017.86 1017.94 1017.98 1018.10 1018.22 1018.22 1018.50 1018.62 1018.78 1018.98 1019.18 1019.14 1019.42 1019.50 1019.66 1019.82 1019.94 1019.98 1020.14 1020.34 1020.46 1020.62 1020.74 1020.22 1020.46 1020.74 1020.54 1020.58 1020.38 1020.22 1020.30 1020.46
1015.86 1015.98 1016.18 1016.42 1016.38 1016.74 1016.86 1017.10 1017.34 1017.54 1017.50 1017.82 1018.02 1017.90 1018.02 1017.90 1018.30 1018.62 1018.78 1018.94 1019.10 1019.22 1019.18 1019.30 1019.46 1019.54 1019.70 1019.86 1020.02 1020.22 1020.30 1020.38 1020.26 1020.18 1020.46 1020.50 1020.46 1020.34 1020.30 1020.18 1020.02 1020.06
1015.46 1015.66 1015.74 1015.94 1016.02 1016.14 1016.46 1016.86 1017.06 1017.30 1017.50 1017.50 1017.54 1017.66 1017.90 1018.14 1018.26 1018.50 1018.70 1018.90 1018.98 1019.10 1019.14 1019.30 1019.34 1019.46 1019.54 1019.74 1019.86 1020.18 1020.06 1020.26 1020.14 1020.22 1020.50 1020.66 1020.46 1020.42 1020.26 1020.14 1020.30 1020.46
1014.94 1015.18 1015.38 1015.62 1015.78 1016.06 1016.30 1016.54 1016.74 1016.82 1017.14 1017.26 1017.38 1017.26 1017.62 1017.90 1018.10 1018.18 1018.46 1018.66 1018.70 1018.82 1018.86 1019.02 1019.22 1019.26 1019.34 1019.58 1019.74 1019.94 1019.98 1020.18 1020.02 1020.18 1020.46 1020.66 1020.66 1020.38 1019.98 1020.10 1020.34 1020.58
1014.74 1014.94 1015.18 1015.22 1015.50 1015.70 1016.06 1016.18 1016.34 1016.46 1016.58 1016.70 1016.86 1017.14 1017.14 1017.62 1018.02 1018.14 1018.22 1018.38 1018.42 1018.58 1018.70 1018.82 1019.10 1019.22 1019.22 1019.34 1019.62 1019.90 1019.94 1020.14 1020.50 1020.06 1020.42 1020.42 1020.46 1020.62 1020.06 1020.06 1020.38 1020.54
1014.30 1014.46 1014.70 1014.90 1015.26 1015.42 1015.78 1015.90 1016.02 1016.26 1016.26 1016.38 1016.70 1016.82 1016.90 1017.14 1017.54 1017.70 1017.94 1018.06 1018.30 1018.50 1018.54 1018.58 1018.86 1019.06 1019.02 1019.10 1019.46 1019.74 1019.82 1019.62 1019.82 1020.02 1020.26 1020.30 1020.22 1020.42 1020.26 1020.06 1020.18 1020.54
1013.86 1014.18 1014.42 1014.70 1014.98 1015.10 1015.38 1015.46 1015.66 1015.82 1015.90 1016.26 1016.38 1016.38 1016.58 1016.78 1016.98 1017.22 1017.54 1017.82 1018.10 1018.26 1018.50 1018.66 1018.74 1018.90 1018.90 1018.94 1019.18 1019.42 1019.66 1019.50 1019.26 1019.62 1020.02 1020.22 1020.30 1020.26 1020.14 1019.94 1020.18 1020.34
1013.74 1013.74 1014.02 1014.34 1014.66 1014.70 1014.94 1014.98 1015.02 1015.38 1015.58 1015.90 1016.02 1015.90 1016.26 1016.54 1016.58 1016.78 1017.14 1017.62 1017.94 1018.18 1018.30 1018.46 1018.62 1018.70 1018.78 1018.82 1019.02 1019.14 1019.34 1019.50 1019.42 1019.46 1019.54 1019.70 1019.82 1019.78 1019.74 1019.82 1019.98 1020.18
1013.42 1013.42 1013.70 1013.98 1014.10 1014.14 1014.42 1014.50 1014.58 1014.74 1015.06 1015.54 1015.66 1015.78 1015.70 1016.02 1016.50 1016.54 1016.90 1017.34 1017.70 1017.90 1018.10 1018.26 1018.34 1018.42 1018.66 1018.66 1018.62 1018.70 1018.94 1019.10 1019.22 1019.30 1019.34 1019.42 1019.42 1019.42 1019.42 1019.50 1019.62 1019.78
1013.06 1013.18 1013.34 1013.50 1013.66 1013.66 1013.82 1013.98 1014.14 1014.34 1014.50 1014.94 1015.26 1015.54 1015.54 1015.50 1016.02 1016.38 1016.58 1017.02 1017.26 1017.42 1017.58 1017.82 1017.94 1018.06 1018.30 1018.38 1018.34 1018.34 1018.50 1018.62 1018.70 1018.90 1018.94 1019.02 1019.02 1019.06 1019.10 1019.14 1019.30 1019.38
1012.70 1012.94 1012.90 1012.98 1013.22 1013.34 1013.22 1013.42 1013.70 1013.86 1014.10 1014.38 1014.66 1015.06 1015.30 1015.42 1015.38 1015.94 1016.18 1016.46 1016.82 1016.98 1017.14 1017.38 1017.58 1017.70 1017.90 1018.10 1018.14 1018.10 1018.14 1018.38 1018.42 1018.50 1018.58 1018.66 1018.66 1018.62 1018.54 1018.58 1018.70 1018.78
1012.30 1012.30 1012.50 1012.62 1012.70 1012.98 1013.10 1013.06 1013.22 1013.46 1013.70 1013.90 1014.06 1014.66 1014.98 1015.02 1015.10 1015.30 1015.70 1015.98 1016.30 1016.58 1016.66 1016.78 1017.18 1017.42 1017.58 1017.70 1017.82 1017.90 1017.90 1018.02 1018.18 1018.22 1018.26 1018.34 1018.30 1018.26 1018.14 1018.06 1018.06 1018.10
1012.06 1012.02 1012.10 1012.38 1012.54 1012.82 1013.06 1013.06 1013.02 1013.14 1013.38 1013.66 1013.90 1014.10 1014.30 1014.50 1014.54 1014.62 1015.06 1015.62 1015.82 1016.10 1016.30 1016.34 1016.62 1016.98 1017.02 1017.22 1017.54 1017.70 1017.62 1017.74 1017.82 1017.94 1018.06 1018.10 1018.10 1017.98 1017.82 1017.82 1017.70 1017.54
1012.02 1012.10 1012.18 1012.30 1012.58 1012.82 1012.98 1013.02 1012.98 1012.90 1013.02 1013.42 1013.66 1013.86 1013.98 1014.14 1014.34 1014.42 1014.54 1014.94 1015.50 1015.74 1015.90 1015.98 1016.06 1016.10 1016.34 1016.58 1016.82 1017.06 1017.30 1017.26 1017.34 1017.54 1017.70 1017.78 1017.98 1018.02 1017.78 1017.54 1017.38 1017.26
1012.22 1012.26 1012.34 1012.50 1012.54 1012.74 1012.82 1012.98 1013.06 1012.90 1012.94 1013.14 1013.42 1013.62 1013.86 1014.02 1014.22 1014.46 1014.46 1014.38 1014.70 1015.14 1015.54 1015.54 1015.46 1015.38 1015.70 1016.18 1016.46 1016.62 1016.70 1016.94 1017.14 1017.22 1017.30 1017.50 1017.58 1017.78 1017.90 1017.58 1017.18 1016.98
1012.82 1012.82 1012.62 1012.62 1012.58 1012.82 1012.90 1012.98 1013.06 1013.14 1013.18 1013.14 1013.26 1013.50 1013.70 1013.74 1014.10 1014.34 1014.34 1014.26 1014.22 1014.38 1014.70 1014.90 1014.94 1014.86 1015.26 1015.70 1016.02 1016.30 1016.42 1016.46 1016.58 1016.82 1016.86 1017.02 1017.18 1017.26 1017.22 1017.22 1017.14 1016.90
1012.78 1012.98 1012.94 1012.86 1012.78 1012.70 1012.78 1012.94 1013.14 1013.30 1013.34 1013.30 1013.34 1013.22 1013.34 1013.86 1014.02 1014.06 1014.26 1014.18 1014.18 1014.30 1014.30 1014.18 1014.34 1014.38 1014.98 1015.30 1015.62 1015.86 1016.10 1016.26 1016.14 1016.18 1016.38 1016.46 1016.46 1016.66 1016.78 1016.82 1016.78 1016.82
1013.46 1013.30 1013.22 1013.06 1012.98 1012.94 1012.78 1012.94 1013.06 1013.22 1013.06 1012.82 1012.90 1012.98 1013.38 1013.62 1013.70 1013.90 1013.86 1014.02 1014.06 1014.14 1014.14 1013.94 1013.86 1013.90 1014.50 1014.94 1015.26 1015.58 1015.82 1016.10 1015.90 1015.86 1015.90 1015.90 1016.02 1016.02 1016.06 1016.26 1016.42 1016.58
1013.34 1013.14 1013.02 1012.86 1012.90 1013.06 1013.10 1013.10 1012.94 1012.90 1012.86 1012.66 1012.54 1012.74 1013.02 1013.30 1013.34 1013.50 1013.54 1013.58 1013.62 1013.74 1013.86 1013.86 1013.58 1013.58 1014.14 1014.42 1014.78 1015.18 1015.46 1015.90 1015.74 1015.70 1015.62 1015.62 1015.58 1015.58 1015.70 1015.78 1015.82 1015.94
1013.34 1013.26 1013.06 1012.94 1012.90 1012.86 1013.22 1013.34 1012.86 1012.74 1012.74 1012.58 1012.42 1012.18 1012.18 1012.46 1012.74 1012.78 1013.02 1013.14 1013.10 1013.22 1013.38 1013.54 1013.10 1013.14 1013.74 1014.18 1014.46 1014.78 1015.18 1015.62 1015.54 1015.70 1015.74 1015.58 1015.42 1015.34 1015.34 1015.38 1015.46 1015.62
1013.62 1013.58 1013.34 1013.10 1012.94 1012.86 1012.82 1012.66 1012.54 1012.38 1012.26 1012.18 1012.46 1012.38 1012.14 1012.22 1012.34 1012.46 1012.50 1012.62 1012.70 1012.78 1013.02 1012.98 1012.78 1012.70 1013.14 1013.58 1014.02 1014.34 1015.06 1015.22 1015.18 1015.34 1015.46 1015.50 1015.38 1015.18 1015.10 1015.10 1015.10 1015.18
1013.86 1013.58 1013.38 1013.14 1013.02 1012.94 1012.66 1012.50 1012.30 1012.22 1012.14 1011.90 1012.30 1012.42 1012.42 1012.02 1011.74 1011.94 1011.98 1012.14 1012.30 1012.34 1012.30 1012.66 1012.46 1012.18 1012.58 1013.06 1013.46 1014.02 1014.38 1014.54 1014.74 1015.02 1015.14 1015.22 1015.18 1014.98 1014.86 1014.82 1014.74 1014.82
1013.86 1013.54 1013.34 1013.02 1012.86 1012.70 1012.94 1013.82 1013.94 1013.90 1013.62 1012.98 1012.94 1012.46 1012.30 1012.14 1012.02 1011.86 1011.62 1011.58 1011.62 1011.70 1011.70 1011.98 1011.90 1011.74 1012.02 1012.50 1013.02 1013.54 1013.94 1013.90 1014.10 1014.50 1014.90 1014.90 1014.90 1014.86 1014.66 1014.58 1014.46 1014.42
1014.02 1013.66 1013.38 1013.10 1012.78 1012.50 1012.98 1014.06 1013.90 1013.82 1014.02 1014.30 1014.18 1014.34 1014.46 1013.66 1012.46 1011.98 1011.70 1011.30 1010.94 1011.02 1011.10 1011.22 1011.46 1011.30 1011.42 1011.94 1012.50 1013.06 1013.34 1013.34 1013.50 1014.18 1014.50 1014.54 1014.42 1014.46 1014.58 1014.34 1014.18 1014.10
Wind_Speed
10 9 9 8 8 7 7 7 7 8 6 6 6 6 5 5 4 5 6 6 6 5 5 4 4 4 3 3 3 2 2 3 3 4 5 4 5 5 4 4 3 2
11 10 8 8 8 7 7 7 7 7 7 6 5 5 5 6 6 6 5 5 6 5 5 5 5 5 4 4 4 4 3 3 4 4 4 5 4 5 5 4 4 3
12 11 11 11 10 11 10 8 7 7 7 8 7 6 7 7 7 6 5 5 5 6 6 5 6 5 5 4 5 5 4 4 5 5 4 4 5 5 5 6 5 6
13 12 12 12 11 11 10 9 8 7 8 7 8 7 6 6 7 7 6 6 5 5 6 6 6 6 6 6 5 5 5 5 5 3 4 4 5 5 4 4 5 4
15 14 12 12 10 9 10 10 10 9 9 8 9 8 7 6 7 8 7 7 6 7 6 6 6 6 6 6 6 5 5 5 5 5 4 4 4 4 5 4 3 4
13 13 12 11 11 10 10 11 11 10 10 10 9 9 8 9 8 8 8 8 8 8 8 8 8 8 8 7 6 6 5 3 4 6 6 5 2 5 4 4 4 5
14 14 14 13 13 12 11 11 11 10 10 9 8 8 9 10 9 8 8 8 8 7 8 7 7 7 7 7 6 6 5 7 8 6 6 6 6 8 5 4 4 5
14 14 13 12 14 13 13 11 11 11 10 10 10 10 9 10 11 10 10 9 9 8 7 7 7 7 8 7 7 7 8 6 6 6 6 6 6 6 6 5 5 6
13 13 13 14 14 13 14 14 12 12 11 11 11 11 10 10 10 11 10 10 9 8 8 8 7 8 8 7 7 8 8 8 7 8 8 7 7 7 7 7 7 6
13 13 14 14 14 13 14 15 13 13 12 12 12 11 12 11 10 10 10 9 10 10 9 9 9 9 8 8 8 8 8 8 7 6 7 8 8 8 8 8 8 7
14 14 14 15 14 13 14 14 14 13 13 13 13 12 12 12 11 10 10 10 11 11 11 10 10 10 9 10 9 9 9 9 8 8 8 8 8 8 8 7 8 8
14 14 15 15 14 14 14 14 13 13 13 13 13 13 12 12 13 12 11 12 12 12 12 11 11 10 10 10 11 10 10 9 9 9 9 8 9 9 8 8 8 8
14 14 13 14 14 13 12 13 13 13 14 13 13 13 13 13 13 13 12 13 13 13 13 12 12 12 10 10 10 10 10 10 10 10 9 8 9 9 9 9 10 9
12 13 13 12 12 11 12 13 13 13 12 12 11 14 14 14 14 14 13 13 13 13 13 12 12 12 12 11 11 11 11 10 10 10 10 10 9 10 10 10 10 10
9 10 11 11 12 11 12 12 12 12 11 11 11 12 13 13 14 14 14 14 13 13 13 13 13 13 11 12 12 12 12 12 11 11 11 10 10 11 11 10 10 10
8 8 9 10 11 12 12 12 13 13 13 13 12 12 11 11 11 12 14 14 14 14 14 13 12 12 12 16 14 12 13 12 11 10 10 10 10 10 11 11 12 11
7 8 9 9 9 11 11 11 12 12 11 10 11 11 11 9 10 13 14 14 15 14 15 13 13 12 16 17 17 16 13 12 11 10 11 11 12 10 10 12 12 12
7 8 9 9 9 10 10 11 11 11 10 11 12 13 11 13 13 13 11 13 13 14 15 14 13 14 17 19 19 18 15 12 13 12 12 12 12 13 12 12 12 12
7 9 10 9 10 10 10 10 11 11 12 13 14 13 13 12 12 13 13 13 13 12 14 15 14 14 16 20 20 20 20 16 13 13 13 13 13 13 13 12 10 11
7 8 9 9 9 9 11 12 12 12 13 13 13 13 13 13 15 14 13 12 13 13 12 13 14 12 19 20 20 20 20 17 14 15 14 14 13 13 13 12 11 11
6 8 9 9 9 10 10 12 12 13 14 13 13 14 14 14 14 15 14 14 15 14 14 15 15 13 17 21 21 21 21 16 14 15 13 13 14 14 11 11 10 11
7 7 7 7 9 9 10 13 13 13 14 12 12 13 13 13 13 13 14 15 15 15 15 16 16 17 17 19 20 20 21 12 13 13 14 13 13 13 12 10 11 12
9 9 9 7 8 11 12 14 15 14 14 12 13 13 14 14 14 14 12 14 15 15 16 14 15 15 18 20 21 22 15 10 12 12 13 14 13 12 12 12 13 12
11 10 10 9 9 10 11 11 11 12 12 12 12 12 12 14 14 12 13 13 15 16 15 15 15 15 18 20 21 21 17 12 11 12 13 12 12 13 12 11 13 17
11 11 11 11 11 11 5 8 11 10 9 9 8 10 8 9 9 12 13 13 14 16 15 16 16 14 17 19 21 21 18 11 12 11 12 12 12 12 12 12 13 12
11 11 11 11 12 11 0 1 5 5 5 9 8 7 8 10 10 11 12 13 14 15 15 16 16 15 14 21 20 21 22 13 11 11 13 13 13 12 11 12 12 13
Wind_Direction
188 190 192 195 198 198 196 195 195 193 196 187 188 189 183 183 184 171 176 163 171 178 166 171 171 181 190 183 177 213 201 213 215 176 208 204 208 227 220 217 241 224
191 192 190 195 192 198 202 200 197 199 190 202 189 179 191 177 183 179 182 175 175 182 174 177 179 188 191 190 186 198 200 206 221 177 203 206 229 228 231 222 222 225
193 192 194 196 195 194 201 195 199 200 196 197 192 187 185 182 182 185 181 192 189 187 180 186 183 185 193 197 183 200 197 200 213 195 186 207 231 235 235 219 213 212
192 195 196 200 203 193 199 193 195 202 204 194 199 193 202 177 180 180 184 189 194 201 194 192 197 192 193 200 196 204 200 204 208 214 188 205 222 236 225 240 234 216
191 194 198 200 204 200 195 200 199 192 208 199 197 197 188 199 184 187 188 187 200 198 199 202 197 204 194 203 203 215 207 205 202 208 205 212 219 221 236 229 245 231
190 192 196 198 199 200 201 199 202 198 199 203 204 189 194 190 205 194 188 197 194 205 200 201 199 203 201 198 206 213 210 233 219 194 215 216 229 262 230 213 214 230
187 190 193 195 198 197 205 203 199 207 199 205 195 206 194 190 197 203 197 200 208 202 208 199 200 203 206 202 203 208 209 190 223 203 215 221 194 224 239 210 215 232
192 188 192 193 198 196 201 202 204 200 204 202 203 198 207 199 193 199 201 200 203 206 214 208 195 208 212 206 205 206 211 215 216 212 213 221 222 222 231 243 214 223
195 191 190 193 197 198 201 201 201 201 199 203 208 198 197 212 198 204 194 197 202 202 203 211 205 203 216 218 212 207 214 228 212 202 211 220 222 227 227 223 227 221
195 195 193 195 198 200 202 204 201 200 198 204 207 210 195 199 210 205 195 194 198 202 202 208 204 208 207 214 220 216 216 220 228 227 219 221 230 227 221 223 226 227
197 200 197 198 201 200 202 204 207 202 197 204 207 213 208 192 197 206 202 194 201 200 203 204 208 209 209 215 214 213 218 218 215 219 219 223 227 231 233 229 227 229
199 201 204 202 204 206 203 203 204 210 203 197 209 211 212 209 192 199 203 199 203 203 203 203 206 210 210 216 219 213 211 217 211 216 218 219 221 224 226 227 232 228
199 204 206 206 203 211 210 205 206 207 211 206 200 211 211 213 204 196 200 203 201 206 206 203 205 209 210 212 221 223 216 212 219 212 217 218 218 226 226 222 225 228
205 204 208 209 207 206 216 214 209 209 207 213 205 204 213 213 215 202 196 204 203 205 208 203 202 207 208 211 213 220 223 216 219 224 218 217 221 221 228 230 223 223
204 212 209 205 212 206 210 219 216 209 207 208 212 213 208 215 217 216 204 200 204 204 207 207 204 205 207 206 209 211 221 223 219 221 226 226 223 225 222 229 238 238
212 221 217 213 208 209 207 213 220 217 212 208 209 213 216 211 217 219 218 205 203 203 206 208 209 208 202 201 200 208 211 220 219 220 225 228 226 231 237 231 231 237
241 223 225 225 211 212 211 213 218 223 220 209 207 210 213 208 215 219 221 219 208 206 207 210 211 213 189 191 198 207 213 214 222 220 219 226 230 229 232 236 238 237
240 253 237 225 223 216 215 215 217 222 227 222 216 213 208 216 212 216 221 225 222 216 212 213 216 211 182 186 193 200 209 216 217 222 224 222 226 230 229 232 237 241
235 233 239 240 231 221 219 218 218 219 220 222 220 219 216 213 218 214 215 221 227 228 226 221 220 204 181 187 192 197 202 212 223 225 227 229 228 225 231 234 235 235
288 264 246 237 240 243 228 222 219 217 219 218 219 214 215 216 218 221 218 216 222 227 230 234 233 196 180 186 193 196 201 204 223 228 231 235 234 234 233 229 227 234
288 264 248 243 234 234 240 238 228 223 220 222 220 214 211 211 214 214 216 216 218 221 225 229 232 213 180 188 191 195 200 200 218 228 235 235 236 237 240 241 234 229
329 323 300 267 248 238 230 232 236 231 230 226 230 226 218 215 216 221 218 216 218 220 222 226 230 215 184 190 193 195 196 198 212 222 232 238 239 238 236 233 233 238
327 316 309 303 274 249 236 233 233 233 232 231 229 234 233 221 217 218 220 222 220 218 223 226 228 216 191 189 192 196 188 202 209 217 224 232 239 239 238 236 235 231
318 309 299 297 292 280 264 256 246 242 240 230 232 234 239 239 227 223 220 221 225 224 220 223 228 216 191 191 192 188 187 198 204 212 222 227 233 235 235 236 233 231
318 314 307 290 287 286 319 352 321 310 305 308 281 270 258 259 262 244 232 226 226 228 224 225 230 221 190 191 191 185 191 199 202 211 220 226 228 230 229 232 235 228
317 316 314 308 295 286 275 178 279 305 320 327 328 304 290 272 261 258 256 242 232 228 227 222 229 234 195 191 187 188 192 199 204 209 222 223 225 228 228 228 229 234